Location: Nashville
(36.1660°N, 86.7840°W)
Time: 23:09:11
(UTC-05:00)

Oscar 11 - Visible Passes

Search period start: 24 May 2022 00:00
Search period end: 03 June 2022 00:00
Orbit: 611 x 624 km, 97.6° (Epoch: 24 May)

Date Brightness Start Highest point End Pass type
(mag) Time Alt. Az. Time Alt. Az. Time Alt. Az.
24 May 10.1 04:36:44 10° ENE 04:38:20 12° E 04:39:57 10° ESE visible
25 May 9.8 04:52:01 10° NE 04:55:04 19° E 04:58:07 10° SE visible
30 May 10.0 04:39:41 10° ENE 04:41:49 13° E 04:43:57 10° ESE visible
31 May 9.7 04:55:14 10° NE 04:58:31 21° E 05:01:47 10° SE visible
